Location: Hillsboro
(38.3483°N, 97.1938°W)
Time: 14:53:58
(UTC-05:00)

Daily predictions for brighter satellites

Satellite Brightness Start Highest point End
(mag) Time Altitude Azimuth Time Altitude Azimuth Time Altitude Azimuth
Cosmos 1461 3.5 21:10:54 10° NW 21:15:04 55° WSW 21:19:00 10° SSE
PSLV R/B 4.1 21:12:14 10° W 21:15:41 54° N 21:19:11 10° ENE
Cosmos 1939 Rocket 4.1 21:13:42 10° SE 21:17:15 28° ENE 21:20:46 10° NNE
ATLAS 3B R/B 3.2 21:12:31 10° S 21:19:44 46° ESE 21:26:53 10° NE
SPOT 5 4.0 21:21:30 10° ESE 21:24:58 24° ENE 21:28:25 10° NNE
Cosmos 2034 Rocket 4.1 21:25:10 10° N 21:31:34 87° E 21:37:52 10° S
Cosmos 1666 3.7 21:33:33 10° NNW 21:37:19 48° W 21:41:04 10° SSW
CZ-4 DEB 4.3 21:35:53 10° SSW 21:38:53 36° W 21:41:55 10° NNW
Cosmos 2369 Rocket 2.7 21:34:24 10° N 21:39:50 45° ENE 21:44:34 13° SE
ERS-1 Rocket 3.0 21:38:30 10° SSE 21:43:30 87° WSW 21:48:34 10° NNW
COSMOS 2455 3.3 21:38:52 10° SW 21:44:50 67° WNW 21:50:50 10° NNE
YAOGAN 6 4.4 21:43:54 12° ESE 21:45:56 18° ENE 21:48:33 10° NNE
GRACE-1 3.8 21:44:21 10° N 21:47:13 79° E 21:50:03 10° S
GRACE-2 3.8 21:44:47 10° N 21:47:39 80° E 21:50:30 10° S
Cosmos 1900 4.5 21:47:16 10° SSW 21:52:18 58° ESE 21:57:21 10° NE
SJ-11-01 4.4 21:48:15 10° S 21:52:54 76° WSW 21:57:35 10° NNW
Cosmos 1758 Rocket 4.3 21:57:13 17° SE 21:59:59 33° E 22:03:53 10° NNE
Envisat 3.0 21:57:18 13° SSE 22:01:48 74° ENE 22:06:52 10° N
CZ-2C R/B 2.9 22:01:44 10° SSW 22:03:31 20° W 22:05:19 10° NW
GEOS 3 Rocket 3.7 21:59:26 15° SSE 22:03:49 75° SW 22:09:04 10° NW
Cosmos 407 Rocket 3.5 21:59:33 10° S 22:04:45 63° ESE 22:09:54 10° NNE
USA 238 DEB 4.2 22:00:58 10° S 22:07:26 39° ESE 22:13:53 10° NE
USA 238 4.2 22:01:06 10° S 22:07:31 39° ESE 22:13:57 10° NE
Cosmos 1515 4.0 22:04:22 10° SSW 22:08:12 69° W 22:12:03 10° N
SL-27 R/B 3.6 22:10:37 23° E 22:10:37 23° E 22:13:18 10° NE
Cosmos 1825 Rocket 3.5 22:10:57 10° S 22:15:24 89° W 22:19:51 10° N
Cosmos 2263 4.3 22:09:57 10° NNW 22:15:32 64° ENE 22:19:03 23° SE
MetOp-A 4.2 22:12:57 20° SSE 22:16:44 68° ENE 22:22:04 10° N
UNK 4.2 22:16:59 10° NNE 22:22:33 82° ESE 22:28:25 10° SSW
Cosmos 1066 Rocket 4.3 22:17:26 10° S 22:23:08 84° W 22:29:00 10° N
Lacrosse 4 Rocket 2.2 22:20:07 10° SW 22:24:04 52° WNW 22:28:04 10° NNE
COSMOS 2406 3.8 22:21:23 23° SSE 22:24:04 35° ESE 22:29:12 10° NE
Cosmos 1954 Rocket 4.1 22:21:57 15° S 22:26:15 56° ESE 22:31:26 10° NNE
Cosmos 1943 Rocket 2.7 22:23:51 10° N 22:29:10 44° ENE 22:31:53 26° ESE
ISS 0.0 22:30:03 10° NW 22:31:38 13° NNW 22:33:15 10° N
Cosmos 2084 4.4 22:28:02 10° NNW 22:31:55 37° NE 22:33:35 26° E
H-2A R/B 3.9 22:31:10 10° SSW 22:34:47 27° W 22:38:30 10° NW
SeaSat 1 2.4 22:32:37 30° SE 22:35:07 77° ENE 22:40:04 10° NNW
CZ-4C R/B 4.2 22:36:09 31° ESE 22:37:09 36° ENE 22:40:49 10° N
Atlas Centaur 2 3.3 22:32:17 10° WSW 22:39:00 43° S 22:42:50 27° SE
Cosmos 1943 4.5 22:34:22 10° SW 22:39:43 42° WNW 22:45:07 10° N
Meteor 1-22 Rocket 4.3 22:35:12 10° N 22:40:53 82° W 22:44:34 24° S
Kosmos-1675 3.3 22:47:09 42° SSW 22:48:05 75° ESE 22:55:21 10° NNE
Cosmos 1741 Rocket 4.4 22:49:48 37° SE 22:51:03 44° ESE 22:56:05 10° NNE
Cosmos 1953 2.7 22:48:44 10° N 22:52:35 45° E 22:52:53 44° E
PSLV R/B 3.5 22:50:01 10° WNW 22:53:33 71° NNE 22:54:07 56° ENE
CZ-4B R/B 4.0 22:49:09 10° N 22:54:13 62° WNW 22:59:09 11° SSW
CZ-4 R/B 3.9 22:49:25 10° NNE 22:54:28 88° WNW 22:57:25 25° SSW
Geosat 4.3 22:50:26 10° NE 22:55:14 43° ESE 22:55:56 41° SE
Cosmos 1346 Rocket 4.4 22:55:11 10° SW 22:58:41 31° WNW 23:02:15 10° NNW
Terra 2.5 22:57:55 35° E 22:58:54 39° ENE 23:03:20 10° N
Nadezhda 4 Rocket 4.2 22:58:24 36° SSE 23:00:44 54° E 23:06:52 10° NNE
Cosmos 1023 Rocket 4.4 22:58:38 32° S 23:01:07 76° ESE 23:06:24 10° NNE
USA 245 4.4 22:58:46 29° S 23:01:41 64° WSW 23:06:33 10° NNW
ARGOS 3.1 22:59:31 36° S 23:01:51 83° WSW 23:07:18 10° NNW
Cosmos 1842 3.3 23:00:59 48° SSW 23:01:59 76° W 23:05:54 10° N
SPOT 5 4.3 23:00:16 15° SW 23:02:56 27° W 23:06:37 10° NW
Cosmos-2242 2.9 22:59:40 10° N 23:04:05 80° E 23:04:55 58° SSE
Cosmos 1850 Rocket 3.9 23:04:58 44° SSE 23:06:28 65° ESE 23:11:38 10° NNE
Cosmos 1140 Rocket 3.4 23:06:28 31° SSW 23:09:01 89° ESE 23:14:17 10° NNE
ATLAS 3B R/B 4.2 23:03:23 10° WSW 23:10:35 42° NW 23:17:38 10° NNE
Cosmos 1570 Rocket 4.1 23:08:08 10° NNW 23:13:30 68° ENE 23:14:45 50° SE
H-2A R/B 2.0 23:14:20 52° SE 23:15:21 64° ENE 23:20:24 10° N
SL-8 R/B 4.3 23:12:45 10° NW 23:17:30 52° NNE 23:19:03 37° E
YAOGAN 6 4.3 23:18:24 23° WSW 23:19:19 26° W 23:22:31 10° NW
Cosmos 1607 3.9 23:16:51 14° SSW 23:22:25 86° WNW 23:28:41 10° NNE
NOSS 3-2 (A) 3.6 23:22:47 47° SE 23:23:29 50° ESE 23:29:42 10° NE
Cosmos 2369 Rocket 4.0 23:19:10 10° NW 23:23:29 23° W 23:26:23 16° SW
USA 234 3.2 23:24:29 40° ESE 23:27:06 81° NE 23:33:42 10° NW
Cosmos 614 Rocket 3.8 23:27:50 57° S 23:28:55 85° ESE 23:34:09 10° NNE
SL-08 RB Rocket 4.4 23:29:36 39° SW 23:30:31 44° W 23:34:52 10° NNW
SAR-Lupe-2 4.1 23:32:34 58° NW 23:32:34 58° NW 23:35:34 10° NNW
Cosmos 1340 3.8 23:35:42 37° NE 23:35:42 37° NE 23:38:13 10° NNE
Cosmos 1544 3.8 23:33:32 10° N 23:36:27 49° NNE 23:36:27 49° NNE
Spot 2 4.4 23:33:00 10° NNE 23:37:57 83° WNW 23:38:53 60° SSW
CARTOSAT-1 3.6 23:39:08 70° WSW 23:39:09 70° WSW 23:43:29 10° NNW
Cosmos 2026 Rocket 4.4 23:39:35 41° E 23:40:02 42° E 23:45:41 10° NNE
Cosmos 1758 4.1 23:37:22 10° NNW 23:41:18 44° W 23:41:25 44° W
Meteor 2-5 Rocket 3.7 23:42:55 61° SE 23:43:37 67° E 23:49:20 10° NNE
Okean 3 Rocket 3.8 23:45:27 59° NE 23:45:27 59° NE 23:49:14 10° NNE
CZ-4C R/B 2.0 23:48:42 71° SE 23:48:47 71° ESE 23:54:36 10° NE
Cosmos 1627 Rocket 4.4 23:52:53 59° SE 23:53:32 63° E 23:59:36 10° NNE
Cosmos 1470 3.6 23:51:50 10° N 23:54:45 49° N 23:54:45 49° N
